Regional Weather Roundup
Issued by NWS

Home | Current Version | Previous Version | Text Only | Print | Product List | Glossary Off
Versions: 1 2 3 4 5 6 7 8 9 10 11 12 13 14 15 16 17 18 19 20 21 22 23 24 25 26 27

000
ASUS45 KBOI 262010
RWRID

IDAHO REGIONAL WEATHER ROUNDUP
NATIONAL WEATHER SERVICE BOISE ID
200 PM MDT FRI MAY 26 2017

NOTE: "FAIR" INDICATES FEW OR NO CLOUDS BELOW 12000 FEET
WITH NO SIGNIFICANT WEATHER AND/OR OBSTRUCTIONS TO VISIBILITY

IDZ012-014-262100-
SOUTHWEST IDAHO


CITY           SKY/WX    TMP DP  RH WIND       PRES   REMARKS
BOISE          MOSUNNY   67  41  38 NW16G23   29.90S
CALDWELL       MOSUNNY   68  43  40 W8G20     29.91S
MOUNTAIN HOME  MOSUNNY   67  39  36 W15G21    29.90S
$$

IDZ016-017-262100-
SOUTHCENTRAL IDAHO


CITY           SKY/WX    TMP DP  RH WIND       PRES   REMARKS
BURLEY         RAIN      48  44  86 CALM      29.95R FOG
JEROME         RAIN      46  44  93 NE8       29.96R FOG
TWIN FALLS     CLOUDY    57  44  62 W15       29.94R
$$

IDZ019>023-262100-
SOUTHEAST IDAHO


CITY           SKY/WX    TMP DP  RH WIND       PRES   REMARKS
IDAHO FALLS    CLOUDY    43  40  89 NW13      29.95R
POCATELLO      CLOUDY    46  43  89 SW9       29.96R
REXBURG        LGT RAIN  43  41  93 VRB6      29.93R
$$

IDZ006-010-011-018-031-032-262100-
CENTRAL IDAHO MOUNTAINS


CITY           SKY/WX    TMP DP  RH WIND       PRES   REMARKS
MCCALL         SUNNY     59  29  31 N9G18     29.93S
HAILEY         PTSUNNY   48  43  81 SE6       29.96R
STANLEY          N/A     53  31  42 N9G20     29.96R
SALMON         PTSUNNY   61  30  31 S3        29.88F
CHALLIS        PTSUNNY   58  32  37 N7        29.92S
$$

IDZ002-004-006-007-026-262100-
NORTHERN IDAHO


CITY           SKY/WX    TMP DP  RH WIND       PRES   REMARKS
LEWISTON       SUNNY     74  43  32 W9        29.92F
LOWELL           N/A     70  42  36 VRB6      29.89S
COEUR D`ALENE  SUNNY     70  44  39 CALM      29.93F
MULLAN PASS    PTSUNNY   54  30  40 VRB6      30.00R
$$




USA.gov is the U.S. government's official web portal to all federal, state and local government web resources and services.